TimePDT,TemperatureF,Dew PointF,Humidity,Sea Level PressureIn,VisibilityMPH,Wind Direction,Wind SpeedMPH,Gust SpeedMPH,PrecipitationIn,Events,Conditions,WindDirDegrees,DateUTC
12:40 AM,64.4,57.2,77,30.03,10.0,Calm,Calm,-,0.00,Thunderstorm,Overcast,0,2013-09-05 07:40:00
12:53 AM,64.0,57.9,80,30.02,10.0,WNW,4.6,-,0.00,,Overcast,290,2013-09-05 07:53:00
1:53 AM,63.0,57.9,84,30.01,10.0,WNW,3.5,-,N/A,,Overcast,290,2013-09-05 08:53:00
2:40 AM,62.6,59.0,88,30.02,10.0,West,3.5,-,0.00,Rain,Light Rain,280,2013-09-05 09:40:00
2:48 AM,62.6,59.0,88,30.01,10.0,WNW,3.5,-,0.00,Rain,Light Rain,290,2013-09-05 09:48:00
2:53 AM,63.0,59.0,87,30.01,10.0,NW,3.5,-,0.00,Rain,Light Rain,310,2013-09-05 09:53:00
3:53 AM,61.0,61.0,100,30.01,10.0,West,3.5,-,0.00,Rain,Light Rain,270,2013-09-05 10:53:00
4:53 AM,61.0,60.1,97,30.00,10.0,WNW,4.6,-,0.00,Rain,Light Rain,290,2013-09-05 11:53:00
5:53 AM,60.1,60.1,100,30.01,10.0,WSW,3.5,-,0.00,,Overcast,240,2013-09-05 12:53:00
6:53 AM,60.1,59.0,96,30.01,10.0,West,3.5,-,0.01,,Overcast,260,2013-09-05 13:53:00
7:53 AM,60.1,59.0,96,30.01,10.0,West,3.5,-,N/A,,Mostly Cloudy,260,2013-09-05 14:53:00
8:53 AM,61.0,59.0,93,30.01,10.0,West,3.5,-,N/A,,Mostly Cloudy,260,2013-09-05 15:53:00
9:53 AM,66.0,62.1,87,30.01,10.0,SW,3.5,-,N/A,,Mostly Cloudy,220,2013-09-05 16:53:00
10:53 AM,66.9,61.0,81,30.01,10.0,Calm,Calm,-,N/A,,Overcast,0,2013-09-05 17:53:00
11:53 AM,66.9,62.1,84,30.01,10.0,NE,3.5,-,N/A,,Overcast,50,2013-09-05 18:53:00
12:53 PM,66.9,62.1,84,30.00,10.0,Calm,Calm,-,N/A,,Overcast,0,2013-09-05 19:53:00
1:53 PM,66.9,62.1,84,30.00,10.0,WSW,3.5,-,0.00,Rain,Light Rain,240,2013-09-05 20:53:00
2:53 PM,66.9,62.1,84,30.00,10.0,NNW,6.9,-,0.00,,Overcast,330,2013-09-05 21:53:00
3:53 PM,64.9,63.0,93,29.99,10.0,SW,5.8,-,0.01,Rain,Light Rain,230,2013-09-05 22:53:00
4:53 PM,64.9,62.1,90,29.99,10.0,SW,5.8,-,0.00,,Overcast,230,2013-09-05 23:53:00
5:13 PM,64.4,62.6,94,29.98,10.0,WSW,6.9,-,0.00,Thunderstorm,Overcast,250,2013-09-06 00:13:00
5:41 PM,64.4,62.6,94,30.01,3.0,SSE,12.7,-,0.00,Rain,Heavy Rain,160,2013-09-06 00:41:00
5:49 PM,62.6,60.8,94,30.01,2.0,South,11.5,-,N/A,Rain,Heavy Rain,170,2013-09-06 00:49:00
5:53 PM,62.1,62.1,100,30.01,2.5,South,11.5,-,N/A,Rain,Heavy Rain,190,2013-09-06 00:53:00
6:01 PM,62.6,62.6,100,30.00,4.0,SW,10.4,-,N/A,Rain,Rain,230,2013-09-06 01:01:00
6:16 PM,62.6,60.8,94,29.99,5.0,WSW,12.7,-,N/A,Rain,Rain,250,2013-09-06 01:16:00
6:53 PM,62.1,61.0,96,29.99,9.0,West,10.4,-,N/A,Rain,Rain,260,2013-09-06 01:53:00
7:53 PM,62.1,62.1,100,29.99,10.0,WSW,5.8,-,N/A,Rain,Light Rain,240,2013-09-06 02:53:00
8:53 PM,62.1,61.0,96,30.01,10.0,South,4.6,-,0.01,Rain,Light Rain,190,2013-09-06 03:53:00
9:32 PM,62.6,60.8,94,30.03,10.0,SW,6.9,-,0.00,,Overcast,220,2013-09-06 04:32:00
9:53 PM,61.0,61.0,100,30.04,10.0,SW,6.9,-,0.01,Rain,Light Rain,230,2013-09-06 04:53:00
10:24 PM,60.8,60.8,100,30.04,7.0,SW,8.1,-,0.00,Rain,Rain,220,2013-09-06 05:24:00
10:48 PM,60.8,60.8,100,30.04,10.0,SW,6.9,-,N/A,Rain,Light Rain,220,2013-09-06 05:48:00
10:53 PM,61.0,61.0,100,30.04,10.0,SW,8.1,-,N/A,Rain,Light Rain,220,2013-09-06 05:53:00
11:53 PM,62.1,61.0,96,30.04,10.0,SW,9.2,-,N/A,Rain,Light Rain,220,2013-09-06 06:53:00